Terminal Aerodrome Forecast
Issued by NWS

Home | Current Version | Previous Version | Graphics & Text | Print | Product List | Glossary On
Versions: 1 2 3 4 5 6 7 8 9 10 11 12 13
000
FTUS42 KMHX 141122
TAFISO
TAF
KISO 141122Z 1412/1512 23010G16KT P6SM SKC
     FM141700 28010G16KT P6SM SKC
     FM150900 VRB03KT P6SM SCT050
      AMD LTD TO CLD VIS AND WIND=

USA.gov is the U.S. government's official web portal to all federal, state and local government web resources and services.